Location: Red Bud (historical)
(37.7759°N, 88.4053°W)
Time: 23:55:11
(UTC+00:00)

Cosmos 1244 Rocket - Pass Details

Date: 29 October 2020
Orbit: 954 x 997 km, 82.9° (Epoch: 28 November)

Event Time Altitude Azimuth Distance (km) Brightness Sun altitude
Rises 23:36:01 0° 355° (N) 3,662 7.4 -8.2°
Reaches altitude 10° 23:38:32 10° 358° (N) 2,718 6.8 -8.7°
Maximum altitude 23:44:45 71° 82° (E) 1,031 4.5 -9.9°
Drops below altitude 10° 23:51:00 10° 166° (SSE) 2,731 6.8 -11.1°
Sets 23:53:31 0° 169° (S) 3,681 7.5 -11.6°
